N5AET-1 Weather Reports


Display with metric or nautical units.
time (UTC)temp
F
wind
direction
speed
MPH
gust
MPH
rain 1hr
in
rain 24hr
in
rain mn
in
humidity
%
barometer
mb
20260510110735 63 0.0 0.0 0.00 0.10 0.10 98 988.5
20260510105715 63 0.0 0.0 0.00 0.10 0.10 98 988.4
20260510104756 63 0.0 0.0 0.01 0.10 0.10 98 988.4
20260510103716 64 0.0 0.0 0.07 0.10 0.10 97 988.2
20260510102715 64 88 1.0 3.0 0.10 0.10 0.10 97 988.1
20260510101715 64 147 1.0 3.0 0.10 0.10 0.10 97 988.3
20260510100715 64 83 2.0 7.0 0.10 0.10 0.10 96 988.3
20260510095736 64 76 1.0 4.0 0.10 0.10 0.10 95 988.4
20260510094715 64 76 4.0 10.0 0.09 0.09 0.09 93 987.9
20260510093715 67 73 9.0 16.0 0.03 0.03 0.03 88 988.5
20260510092715 69 50 6.0 22.0 0.00 0.00 0.00 82 988.4
20260510091716 71 46 5.0 11.0 0.00 0.00 0.00 79 988.6
20260510090715 73 26 5.0 10.0 0.00 0.00 0.00 84 988.2
20260510085715 74 23 1.0 4.0 0.00 0.00 0.00 94 987.5
20260510084715 74 55 1.0 3.0 0.00 0.00 0.00 94 987.2
20260510083715 74 0.0 0.0 0.00 0.00 0.00 93 986.6
20260510082715 74 74 1.0 2.0 0.00 0.00 0.00 93 986.5
20260510081715 74 0.0 4.0 0.00 0.00 0.00 93 986.9
20260510080735 74 355 1.0 3.0 0.00 0.00 0.00 93 986.5
20260510075716 74 0.0 0.0 0.00 0.00 0.00 92 986.0
20260510074715 74 106 0.0 2.0 0.00 0.00 0.00 92 985.7
20260510073736 74 0.0 0.0 0.00 0.00 0.00 91 985.4
20260510072715 74 0.0 0.0 0.00 0.00 0.00 91 985.1
20260510071715 75 0.0 0.0 0.00 0.00 0.00 90 984.8
20260510070716 75 89 1.0 5.0 0.00 0.00 0.00 89 985.1
20260510065716 76 72 2.0 7.0 0.00 0.00 0.00 87 985.6
20260510064716 76 351 2.0 5.0 0.00 0.00 0.00 87 986.5
20260510063716 76 5 2.0 6.0 0.00 0.00 0.00 85 986.6
20260510062715 76 358 0.0 2.0 0.00 0.00 0.00 85 986.7
20260510061715 76 0.0 0.0 0.00 0.00 0.00 85 986.6
20260510060715 75 18 0.0 2.0 0.00 0.00 0.00 86 986.1
20260510055735 75 74 0.0 1.0 0.00 0.00 0.00 87 985.0
20260510054716 75 77 0.0 3.0 0.00 0.00 0.00 87 984.4
20260510053715 75 158 0.0 1.0 0.00 0.00 0.00 86 984.4
20260510052716 75 0.0 0.0 0.00 0.00 0.00 86 984.2
20260510051715 75 139 1.0 2.0 0.00 0.00 0.00 85 984.0
20260510050716 75 141 1.0 3.0 0.00 0.00 0.00 84 984.2
20260510045716 75 0.0 0.0 0.00 0.00 0.00 83 984.2
20260510044716 75 154 0.0 1.0 0.00 0.00 0.00 80 983.8
20260510043716 75 0.0 0.0 0.00 0.00 0.00 78 983.7
20260510042736 75 0.0 0.0 0.00 0.00 0.00 78 983.7
20260510041716 75 0.0 0.0 0.00 0.00 0.00 78 983.8
20260510040716 75 0.0 0.0 0.00 0.00 0.00 78 984.0
20260510035716 75 0.0 0.0 0.00 0.00 0.00 77 984.1
20260510034716 75 0.0 0.0 0.00 0.00 0.00 75 984.0
20260510033716 76 0.0 0.0 0.00 0.00 0.00 74 984.0
20260510032716 77 0.0 0.0 0.00 0.00 0.00 72 984.0
20260510031716 77 0.0 0.0 0.00 0.00 0.00 71 984.1
20260510030716 78 0.0 0.0 0.00 0.00 0.00 69 984.1
20260510025716 78 0.0 0.0 0.00 0.00 0.00 67 984.1
20260510024716 79 0.0 0.0 0.00 0.00 0.00 66 984.0
20260510023716 79 0.0 0.0 0.00 0.00 0.00 65 984.0
20260510022736 79 0.0 0.0 0.00 0.00 0.00 64 983.9
20260510021716 80 0.0 1.0 0.00 0.00 0.00 63 983.8
20260510020716 80 72 0.0 2.0 0.00 0.00 0.00 62 983.7
20260510015716 80 0.0 1.0 0.00 0.00 0.00 61 983.6
20260510014716 81 74 1.0 2.0 0.00 0.00 0.00 61 983.6
20260510013736 81 0.0 0.0 0.00 0.00 0.00 59 983.5
20260510012716 81 72 1.0 2.0 0.00 0.00 0.00 58 983.4
20260510011736 82 0.0 0.0 0.00 0.00 0.00 57 983.1
20260510010736 82 81 0.0 3.0 0.00 0.00 0.00 55 983.1
20260510005716 83 0.0 2.0 0.00 0.00 0.00 53 982.9
20260510004716 84 0.0 0.0 0.00 0.00 0.00 52 982.9
20260510003716 84 75 2.0 5.0 0.00 0.00 0.00 50 982.9
20260510002756 84 74 0.0 3.0 0.00 0.00 0.00 49 982.7
20260510001716 85 91 1.0 2.0 0.00 0.00 0.00 51 982.8
20260510000716 85 0.0 0.0 0.00 0.00 0.00 49 982.9
20260509235716 85 78 1.0 3.0 0.00 0.00 0.00 50 982.9
20260509234736 85 84 0.0 2.0 0.00 0.00 0.00 51 982.9
20260509233716 85 47 0.0 4.0 0.00 0.00 0.00 52 982.9
20260509232716 86 0.0 1.0 0.00 0.00 0.00 53 983.0
20260509231716 86 92 1.0 5.0 0.00 0.00 0.00 53 983.0
20260509230716 86 77 1.0 2.0 0.00 0.00 0.00 54 982.9
20260509225716 86 60 2.0 6.0 0.00 0.00 0.00 54 983.0
20260509224716 86 87 0.0 3.0 0.00 0.00 0.00 55 982.9
20260509223716 86 0.0 0.0 0.00 0.00 0.00 56 982.8
20260509222716 86 108 1.0 4.0 0.00 0.00 0.00 56 982.8
20260509221736 87 103 0.0 1.0 0.00 0.00 0.00 56 982.8
20260509220716 86 79 0.0 6.0 0.00 0.00 0.00 56 982.8
20260509215716 86 0.0 3.0 0.00 0.00 0.00 56 982.8
20260509214716 87 75 2.0 6.0 0.00 0.00 0.00 56 982.9
20260509213716 87 135 0.0 7.0 0.00 0.00 0.00 57 983.0
20260509212716 87 15 0.0 5.0 0.00 0.00 0.00 57 983.1
20260509211716 86 0.0 1.0 0.00 0.00 0.00 58 983.2
20260509210716 86 92 0.0 2.0 0.00 0.00 0.00 57 983.3
20260509205716 87 89 3.0 11.0 0.00 0.00 0.00 57 983.4
20260509204716 87 81 0.0 2.0 0.00 0.00 0.00 57 983.6
20260509203736 87 77 2.0 6.0 0.00 0.00 0.00 58 983.7
20260509202716 86 167 1.0 2.0 0.00 0.00 0.00 59 983.8
20260509201756 87 79 2.0 5.0 0.00 0.00 0.00 58 983.9
20260509200716 86 0.0 1.0 0.00 0.00 0.00 58 984.0
20260509195716 87 0.0 3.0 0.00 0.00 0.00 57 984.0
20260509194736 87 119 1.0 3.0 0.00 0.00 0.00 58 984.0
20260509193716 86 81 0.0 2.0 0.00 0.00 0.00 57 984.2
20260509192736 87 49 0.0 4.0 0.00 0.00 0.00 58 984.3
20260509191716 87 348 0.0 1.0 0.00 0.00 0.00 57 984.4
20260509190716 87 55 0.0 1.0 0.00 0.00 0.00 59 984.5
20260509185736 86 351 1.0 4.0 0.00 0.00 0.00 60 984.5
20260509184716 86 0.0 4.0 0.00 0.00 0.00 61 984.5
20260509183716 85 0.0 4.0 0.00 0.00 0.00 62 984.6
20260509182716 85 328 1.0 3.0 0.00 0.00 0.00 63 984.7
20260509181736 84 74 0.0 2.0 0.00 0.00 0.00 63 984.7
20260509180716 84 335 1.0 3.0 0.00 0.00 0.00 66 984.9
20260509175716 83 342 0.0 2.0 0.00 0.00 0.00 67 985.0
20260509174716 83 355 1.0 3.0 0.00 0.00 0.00 66 985.1
20260509173716 83 46 0.0 1.0 0.00 0.00 0.00 68 985.2
20260509172716 82 0.0 1.0 0.00 0.00 0.00 67 985.3
20260509171736 81 287 1.0 3.0 0.00 0.00 0.00 70 985.5
20260509170716 81 356 1.0 3.0 0.00 0.00 0.00 72 985.6
20260509165736 81 359 4.0 6.0 0.00 0.00 0.00 72 985.5
20260509164716 80 338 1.0 3.0 0.00 0.00 0.00 74 985.5
20260509163716 80 347 2.0 5.0 0.00 0.00 0.00 75 985.4
20260509162716 79 329 0.0 1.0 0.00 0.00 0.00 77 985.5
20260509161716 77 5 0.0 2.0 0.00 0.00 0.00 78 985.4
20260509160716 78 358 3.0 6.0 0.00 0.00 0.00 78 985.5
20260509155716 77 142 1.0 3.0 0.00 0.00 0.00 80 985.4
20260509154716 76 290 2.0 4.0 0.00 0.00 0.00 81 985.5
20260509153716 75 304 3.0 8.0 0.00 0.00 0.00 84 985.6
20260509152716 74 354 2.0 5.0 0.00 0.00 0.00 84 985.4
20260509151756 75 293 1.0 3.0 0.00 0.00 0.00 83 985.4
20260509150716 74 7 1.0 5.0 0.00 0.00 0.00 83 985.5
20260509145716 74 299 2.0 7.0 0.00 0.00 0.00 84 985.5
20260509144716 74 0 1.0 6.0 0.00 0.00 0.00 85 985.5
20260509143716 74 293 0.0 7.0 0.00 0.00 0.00 86 985.5
20260509142716 73 260 2.0 3.0 0.00 0.00 0.00 88 985.4
20260509141716 73 285 3.0 7.0 0.00 0.00 0.00 88 985.3
20260509140716 72 296 2.0 5.0 0.00 0.00 0.00 88 985.2
20260509135716 72 286 3.0 7.0 0.00 0.00 0.00 89 985.2
20260509134736 72 276 3.0 7.0 0.00 0.00 0.00 90 985.2
20260509133716 72 281 3.0 12.0 0.00 0.00 0.00 91 985.1
20260509132716 71 290 1.0 3.0 0.00 0.00 0.00 93 984.9
20260509131716 71 287 3.0 6.0 0.00 0.00 0.00 93 985.0
20260509130716 71 293 5.0 8.0 0.00 0.00 0.00 93 984.8
20260509125716 70 294 1.0 5.0 0.00 0.00 0.00 95 985.0
20260509124736 70 288 2.0 7.0 0.00 0.00 0.00 95 984.8
20260509123716 70 290 4.0 7.0 0.00 0.00 0.00 95 984.9
20260509122756 69 290 1.0 2.0 0.00 0.00 0.00 97 984.8
20260509121716 68 284 0.0 1.0 0.00 0.00 0.00 97 984.8
20260509120716 68 0.0 0.0 0.00 0.00 0.00 97 984.8
20260509115736 68 0.0 0.0 0.00 0.00 0.00 97 984.6
20260509114716 68 0.0 0.0 0.00 0.00 0.00 96 984.6
20260509113716 69 0.0 0.0 0.00 0.00 0.00 96 984.3
20260509112736 69 0.0 0.0 0.00 0.00 0.00 95 984.1
20260509111716 70 0.0 0.0 0.00 0.00 0.00 95 983.9